Location: ????????
(55.6773°N, 38.2421°E)
Time: 03:02:52
(UTC+00:00)

Daily predictions for brighter satellites

Satellite Brightness Start Highest point End
(mag) Time Altitude Azimuth Time Altitude Azimuth Time Altitude Azimuth
Cosmos 2333 4.3 00:01:31 10° NW 00:07:12 66° WSW 00:12:53 10° SSE
SJ 16-02 1.8 00:04:01 10° S 00:08:15 58° ESE 00:12:30 10° NNE
Cosmos 1315 Rocket 3.7 00:04:42 10° SW 00:08:18 35° WNW 00:11:57 10° N
Cosmos 2181 Rocket 4.1 00:04:24 10° NNW 00:10:48 73° W 00:17:04 10° S
Cosmos 1850 Rocket 4.1 00:06:31 10° SSW 00:11:49 77° WNW 00:17:07 10° NNE
Cosmos 1709 Rocket 4.2 00:05:53 10° SSW 00:12:09 64° WNW 00:18:32 10° N
SL-16 R/B 2.6 00:06:46 10° S 00:13:00 67° WSW 00:19:17 10° NNW
